Overview Statistics Trail Chart Weather Telemetry Raw packets
 

This is the latest recevied weather packets stored in our database for station/object K6CEG. If no packets are shown the sender has not sent any weather packets the latest 10 day(s).

<< 41 42 43 44 45 46 47 >>
Time Temp. Humidity Pressure Rain* Wind** Luminosity Snow
1788401486 23.89° C 42% 1015.7 hPa 0 mm - 3 W/m² -
1788401182 24.44° C 41% 1015.7 hPa 0 mm - 4 W/m² -
1788400881 25° C 39% 1015.7 hPa 0 mm - 7 W/m² -
1788400577 25.56° C 39% 1015.9 hPa 0 mm - 9 W/m² -
1788400272 25.56° C 39% 1015.8 hPa 0 mm - 11 W/m² -
1788399972 26.11° C 37% 1015.8 hPa 0 mm - 13 W/m² -
1788399687 26.11° C 36% 1015.5 hPa 0 mm - 14 W/m² -
1788399367 26.67° C 36% 1015.7 hPa 0 mm - 18 W/m² -
1788399062 27.78° C 36% 1015.6 hPa 0 mm - 15 W/m² -
1788398761 27.78° C 31% 1015.7 hPa 0 mm - 18 W/m² -
1788398460 27.78° C 31% 1015.7 hPa 0 mm - 21 W/m² -
1788398160 27.22° C 29% 1015.8 hPa 0 mm - 23 W/m² -
1788397860 27.22° C 30% 1015.7 hPa 0 mm - 61 W/m² -
1788397555 27.22° C 31% 1015.7 hPa 0 mm - 24 W/m² -
1788397254 27.22° C 32% 1015.6 hPa 0 mm - 31 W/m² -
1788396954 27.22° C 31% 1015.7 hPa 0 mm - 29 W/m² -
1788396649 27.22° C 34% 1015.9 hPa 0 mm - 23 W/m² -
1788396344 27.22° C 34% 1015.8 hPa 0 mm - 42 W/m² -
1788396040 26.67° C 36% 1015.7 hPa 0 mm - 24 W/m² -
1788395735 26.67° C 36% 1015.7 hPa 0 mm - 25 W/m² -
1788395430 27.22° C 35% 1015.7 hPa 0 mm - 26 W/m² -
1788395130 27.22° C 37% 1015.6 hPa 0 mm - 31 W/m² -
1788394825 27.78° C 37% 1015.9 hPa 0 mm - 39 W/m² -
1788394520 27.22° C 37% 1015.8 hPa 0 mm - 185 W/m² -
1788394219 27.78° C 37% 1015.9 hPa 0 mm - 206 W/m² -

* Rain latest hour (hover to see other rain measurements)
** Current wind speed in m/s (hover to see current wind gust speed)